Theta_e
312 313 315 313 312 310 310 310 310 311 311 309 310 310 311 311 312 313 313 312 312 312 312 312 312 314 314 314 316 318 318 318 318 319 321 331 334 334 336 336 336 336 338 337
310 311 310 308 308 307 308 308 310 310 310 308 309 310 312 312 313 312 311 311 311 311 311 311 312 311 310 310 311 311 315 319 318 318 317 319 324 331 333 335 336 337 338 339
310 310 307 306 307 308 309 308 309 308 308 309 310 310 311 312 311 310 310 310 310 311 312 311 310 309 309 307 307 309 311 313 321 319 318 318 319 323 330 333 335 337 337 338
310 308 306 307 307 307 308 307 307 307 307 308 309 308 311 312 312 310 309 310 311 310 309 308 307 306 306 306 304 306 311 315 317 323 322 320 321 321 327 331 333 335 338 337
309 307 306 307 307 306 307 307 306 306 307 308 309 309 311 312 311 309 311 310 308 308 306 305 304 304 303 302 302 303 309 314 318 321 323 326 329 325 320 329 333 335 335 336
307 306 306 307 306 305 305 306 307 308 308 310 311 309 310 310 309 311 310 308 307 306 305 304 304 303 302 301 302 303 304 308 312 316 319 320 324 331 328 328 329 335 334 333
305 306 305 304 305 306 306 307 308 309 310 311 310 308 308 308 310 311 309 307 306 305 304 303 302 302 302 300 301 303 303 303 305 308 312 318 323 328 332 330 331 334 334 334
307 307 306 306 306 306 305 305 306 306 309 310 308 307 308 307 309 309 308 306 306 305 304 304 303 301 300 299 299 301 301 301 302 303 305 311 318 323 329 332 333 333 333 334
308 307 305 305 305 304 307 305 307 306 306 306 307 308 307 307 310 308 306 305 304 304 303 302 301 299 297 297 295 299 299 300 300 301 302 305 310 314 317 325 331 331 330 330
308 308 306 305 304 304 304 306 307 308 308 307 307 306 307 310 309 308 306 305 304 304 303 301 299 298 296 294 294 294 299 298 297 300 299 300 304 306 308 311 319 327 328 328
306 306 305 304 304 305 306 305 305 306 307 307 306 309 310 309 308 308 306 305 304 303 302 301 299 298 295 293 292 293 297 298 296 298 296 298 303 303 303 305 309 314 318 321
306 306 306 305 305 305 305 306 307 308 307 307 307 306 308 309 307 305 305 304 303 302 302 300 299 297 293 292 292 292 294 295 295 294 298 294 298 302 301 302 304 307 309 312
305 304 304 304 305 304 304 305 306 306 306 305 306 305 309 307 305 304 304 303 302 301 301 299 298 296 293 292 291 291 292 293 295 291 296 293 297 300 300 299 301 303 305 307
304 304 305 305 306 307 304 305 305 306 306 305 305 305 306 307 306 304 302 301 300 300 299 298 296 295 294 292 290 290 290 291 292 292 292 292 294 300 302 300 301 300 302 303
304 304 304 303 304 304 304 305 304 304 304 305 305 305 306 306 305 302 301 300 299 299 298 296 295 294 293 292 291 289 289 289 289 291 290 291 290 293 297 301 302 303 301 300
303 306 305 304 303 303 303 304 304 304 304 305 305 305 306 303 302 301 301 298 298 297 296 295 294 293 292 291 291 289 288 288 288 289 288 289 290 290 291 292 294 296 296 297
305 305 305 305 304 304 305 305 305 305 305 305 305 305 303 302 301 300 299 297 297 296 294 294 293 292 291 291 290 289 288 288 288 288 287 288 288 289 289 290 291 293 293 296
306 305 305 305 305 305 306 306 305 304 304 304 303 302 301 301 300 299 297 297 295 295 293 293 292 291 291 290 290 289 289 288 288 287 287 287 287 288 289 290 290 291 293 299
304 305 305 306 305 306 305 304 304 304 305 304 302 302 301 300 300 299 297 296 294 294 293 292 291 290 290 290 289 289 289 289 287 286 286 287 287 287 288 288 289 290 290 292
304 305 306 305 305 304 307 304 302 303 304 302 301 301 300 300 302 302 296 294 294 293 292 291 290 290 290 289 288 288 289 288 287 286 286 287 287 287 287 288 288 289 289 290
304 305 305 306 306 306 305 303 302 304 306 301 300 300 299 299 298 296 295 293 292 292 291 290 289 289 289 289 288 288 288 287 286 285 286 286 286 287 287 287 287 287 288 287
305 305 306 305 306 305 303 303 303 304 300 300 299 298 297 297 296 295 293 293 292 291 290 289 289 288 288 288 287 287 287 286 285 285 285 285 285 285 285 285 285 285 285 285
306 308 307 306 306 303 303 304 302 301 300 298 298 297 297 296 294 293 293 292 291 290 289 288 288 288 287 287 286 286 286 285 284 284 283 283 283 283 283 283 284 284 284 284
304 303 305 305 304 304 302 301 300 299 298 297 297 296 295 294 292 292 291 291 290 289 288 287 287 287 286 286 285 285 284 283 283 283 283 284 283 283 283 283 284 284 283 282
305 303 304 303 303 302 302 301 299 298 297 297 295 294 292 291 291 290 289 289 288 287 286 285 285 285 284 284 284 284 283 282 282 282 283 283 282 283 283 283 283 283 282 281
303 303 304 304 304 303 302 299 298 297 296 295 294 293 291 289 288 287 287 286 285 284 283 283 282 282 282 282 282 282 281 281 281 281 282 282 282 282 282 282 282 283 282 281
Wind_Speed
9 8 12 10 9 9 10 12 13 13 9 9 12 16 14 7 11 10 7 10 11 14 17 20 21 24 26 28 27 25 24 22 19 18 19 22 24 28 32 35 36 36 36 41
6 13 6 2 4 8 11 12 13 8 5 11 15 17 14 9 8 11 11 14 16 18 21 22 24 28 30 31 33 31 27 25 25 22 23 25 27 28 31 32 35 38 37 40
12 6 3 4 7 9 12 11 10 12 15 19 15 14 14 12 8 8 10 15 19 23 27 28 30 31 31 32 34 36 36 30 25 28 26 28 30 31 32 33 33 36 41 41
11 11 8 9 10 5 12 4 7 12 11 11 13 9 10 14 9 7 11 17 25 25 27 28 30 32 31 31 31 34 36 36 27 20 27 30 32 33 34 35 33 35 36 42
2 8 9 10 6 1 7 6 12 15 14 16 16 10 4 7 2 8 19 21 23 24 24 26 27 28 28 30 30 32 29 26 28 26 24 26 29 36 41 34 34 33 36 40
5 1 3 5 2 6 9 12 17 17 12 9 2 3 7 5 9 9 14 16 18 19 22 23 24 26 27 31 39 33 30 26 21 20 24 30 33 34 39 36 38 34 34 39
8 9 4 6 9 9 11 12 7 7 8 8 8 4 8 11 13 12 11 12 13 16 19 22 27 30 30 31 37 40 32 30 26 19 15 20 26 35 33 38 36 34 35 37
9 8 13 9 9 5 3 6 6 7 7 11 3 6 4 10 11 16 13 12 11 16 19 22 24 25 27 28 33 37 35 28 29 24 23 15 10 13 24 35 34 33 34 31
8 6 6 4 3 4 7 6 7 6 12 7 8 7 7 12 10 12 15 11 14 18 21 22 24 23 25 27 29 33 35 29 25 27 22 19 9 10 9 2 24 22 20 23
5 5 10 7 6 5 8 4 4 5 4 8 7 6 6 8 7 9 11 12 13 18 21 23 24 23 26 26 27 28 31 31 26 24 20 17 13 14 17 12 7 18 17 16
5 6 9 6 11 9 6 8 6 6 6 5 8 1 6 6 5 10 11 13 17 20 22 22 24 23 26 25 28 27 30 31 27 20 22 19 14 11 18 16 13 8 7 12
6 5 8 12 4 6 7 7 6 4 4 6 8 14 6 10 11 10 14 14 18 19 21 23 24 23 34 32 31 29 29 29 29 21 20 24 14 16 13 17 13 10 6 2
8 6 7 6 8 6 9 9 8 7 3 10 9 9 12 8 5 9 12 14 19 21 22 24 24 27 32 35 34 32 28 28 29 26 21 24 16 10 14 19 16 12 7 6
5 7 12 8 6 5 14 12 12 12 9 11 11 15 11 13 12 13 14 15 19 21 24 25 25 25 27 30 31 32 30 27 28 25 26 25 23 13 9 18 16 13 11 7
6 7 12 11 4 4 8 11 13 15 15 14 16 17 11 10 10 10 15 16 20 21 23 23 24 25 25 26 26 27 26 28 27 26 24 24 23 18 12 7 10 13 12 11
9 4 3 8 10 10 11 14 16 15 15 14 14 14 6 12 15 17 17 16 19 22 21 22 22 23 24 25 26 27 26 26 27 26 23 21 20 19 18 12 16 14 11 10
10 5 7 9 8 10 12 16 12 10 2 4 10 10 13 12 14 14 12 13 18 18 20 21 21 22 23 24 25 26 26 25 24 24 23 23 23 21 19 17 15 13 14 14
8 8 3 4 5 12 4 5 3 2 8 10 6 7 8 10 11 6 6 14 16 18 19 20 21 22 21 23 23 24 24 24 24 25 25 25 25 25 24 21 20 19 18 15
7 7 5 5 11 5 8 7 5 5 5 4 5 6 8 10 12 3 7 12 14 16 18 19 19 20 20 21 23 24 23 23 24 25 25 26 25 25 24 23 22 20 19 17
7 6 6 7 9 8 9 9 5 3 9 9 4 5 6 10 7 4 13 13 14 15 17 19 20 19 19 20 20 20 22 23 25 26 27 26 23 22 22 23 22 22 20 19
9 7 10 10 6 1 9 8 6 7 3 7 5 3 2 5 6 13 13 14 14 15 17 19 19 18 19 20 20 21 21 22 23 23 22 22 21 22 21 21 19 20 18 17
10 7 6 8 6 8 11 8 6 4 4 4 4 2 3 7 8 10 11 13 14 16 17 18 19 19 19 19 20 21 21 23 23 22 21 20 19 17 17 18 18 18 18 19
6 4 3 2 0 8 6 2 3 2 5 5 4 3 5 7 8 10 12 13 13 15 16 17 18 19 19 19 21 22 22 22 24 24 23 22 21 20 20 21 21 20 21 21
8 6 1 2 7 8 5 4 4 4 4 4 3 3 5 6 8 10 12 13 14 15 16 17 18 18 20 20 21 20 22 23 24 25 24 24 24 24 23 20 20 21 22 22
7 10 7 3 5 6 7 7 7 5 4 4 2 2 3 6 8 10 12 13 14 15 15 16 16 17 18 20 20 21 22 24 24 24 22 23 22 21 21 19 19 20 19 21
7 8 6 1 10 7 8 10 8 7 6 3 2 3 4 7 9 11 11 11 12 14 15 15 16 17 18 19 19 19 19 21 23 23 22 23 23 22 21 22 21 17 19 20
Wind_Direction
189 264 239 16 25 338 308 294 285 286 349 317 297 296 300 27 49 52 49 20 7 348 348 347 347 345 347 346 341 336 326 318 307 289 267 253 248 241 241 238 234 233 229 245
233 241 67 22 327 281 280 281 278 308 238 312 284 296 277 86 90 61 26 13 359 350 343 347 352 348 347 344 339 332 331 318 303 290 280 265 256 250 244 245 241 233 232 235
250 69 118 205 229 261 266 250 298 308 309 279 270 290 121 143 134 41 15 6 354 1 357 351 347 349 346 346 341 334 324 316 310 293 286 276 263 255 246 242 239 240 232 230
249 138 226 234 246 265 280 70 273 284 290 290 337 282 253 149 146 41 6 14 13 359 353 348 348 348 347 343 341 335 327 316 308 289 288 278 272 258 246 239 241 237 234 233
159 186 208 232 254 245 283 312 279 274 277 281 263 245 185 165 131 22 38 20 5 359 355 354 353 350 349 348 344 339 329 309 290 281 279 273 274 265 255 248 243 241 234 233
333 79 262 316 176 261 310 282 261 249 250 260 236 227 281 115 51 27 33 20 10 359 357 355 350 350 350 352 350 344 335 326 314 296 285 284 265 268 259 252 242 237 241 234
196 212 167 213 234 199 241 272 283 234 208 257 125 239 274 92 71 67 40 24 3 359 354 349 346 345 347 350 353 347 341 336 326 329 322 294 279 256 257 252 244 240 243 243
197 196 195 169 250 318 284 293 284 293 296 299 177 255 121 86 86 90 46 19 356 355 350 345 342 339 340 345 349 349 343 343 328 328 330 328 310 292 267 249 243 239 237 239
218 191 118 216 186 266 137 246 30 296 258 271 250 221 219 149 82 46 42 355 345 339 341 342 340 342 343 343 345 349 346 344 339 328 333 335 339 15 13 145 206 199 199 206
206 201 187 159 218 206 269 35 211 185 263 272 282 271 264 64 10 353 14 358 342 338 337 337 337 339 341 341 340 343 350 344 356 326 344 341 348 8 20 358 117 175 183 177
205 241 158 171 210 228 172 226 237 303 273 287 301 19 61 61 14 5 359 341 339 336 334 335 335 334 338 339 341 344 349 350 352 344 339 2 352 330 22 16 28 107 184 203
187 232 201 213 92 291 269 235 198 257 228 233 279 278 89 51 28 2 345 334 331 329 332 333 332 328 335 341 344 346 350 355 348 356 332 346 360 350 359 4 19 45 32 119
170 213 191 214 209 206 226 206 182 207 273 264 274 285 105 70 291 357 340 338 331 329 331 332 333 333 336 339 342 345 350 351 352 1 347 349 354 350 343 5 26 17 23 11
229 257 242 271 2 171 204 221 206 214 245 276 269 276 327 14 354 354 339 331 326 326 330 331 333 334 335 339 339 341 344 351 354 358 357 352 356 8 336 338 357 5 3 351
221 246 235 258 238 240 208 212 219 234 247 260 278 296 356 355 354 353 325 329 325 329 330 331 333 335 337 338 339 340 343 344 355 356 358 354 350 354 358 341 304 318 339 346
208 241 323 253 246 243 244 239 245 251 260 272 284 294 10 345 332 339 330 331 327 329 332 335 336 337 338 338 339 338 342 346 347 353 356 351 354 358 347 349 341 338 321 318
190 220 207 254 193 216 243 234 228 237 266 292 277 322 344 332 336 331 335 332 329 331 335 337 337 337 337 338 338 338 342 343 346 349 351 350 351 353 349 347 341 338 332 342
195 216 218 272 175 235 127 52 96 225 250 246 258 291 310 316 322 327 335 330 333 332 334 335 334 335 338 336 338 340 343 343 346 348 350 353 351 352 350 346 346 349 348 342
210 209 216 228 226 156 173 191 217 240 263 182 251 268 304 311 302 179 338 334 328 327 328 329 331 332 334 338 339 342 342 342 344 348 350 349 347 346 349 347 351 345 345 350
197 264 263 216 255 251 81 117 145 144 259 156 213 267 294 314 297 90 339 326 324 324 326 328 331 332 335 337 341 344 341 342 345 345 347 345 345 344 346 346 347 345 352 346
194 214 220 237 242 288 144 146 166 236 92 165 242 242 294 307 304 304 314 320 322 325 326 329 331 333 333 336 339 341 342 342 341 341 342 341 344 345 345 341 345 348 346 345
190 196 201 242 227 245 154 149 232 90 143 183 198 230 273 287 298 305 314 321 324 327 329 330 331 331 335 336 337 339 340 336 338 339 339 340 342 344 343 344 346 351 348 351
206 220 240 189 143 126 137 107 133 163 173 183 213 245 283 296 307 313 321 325 325 327 328 329 330 331 333 334 337 336 332 334 337 338 341 341 343 345 349 353 353 352 353 353
203 168 220 190 190 177 157 150 167 175 175 197 230 281 298 306 312 318 324 326 326 327 329 330 332 330 330 332 334 331 332 336 338 338 344 343 344 348 352 356 354 351 350 347
153 178 187 215 205 139 200 184 184 181 189 196 228 296 310 321 321 325 325 326 328 330 330 331 332 330 329 331 333 334 334 336 337 336 340 338 344 347 347 349 351 346 342 341
191 198 192 272 176 180 166 176 172 179 196 205 264 287 319 331 328 328 327 328 329 331 332 334 335 334 334 335 334 331 332 335 335 335 338 339 341 342 345 347 345 348 342 345